Temperature
19 19 19 19 18 18 17 16 15 14 13 12 11 11 11 10 10 10 10 9 9 9 8 8 8 7 7 7 7 7 6 6 6 5 5 6 6 6 7 7 7 7 6
19 19 19 18 18 17 17 16 15 15 14 13 13 12 11 11 10 10 9 9 9 8 8 7 7 7 7 7 6 6 6 6 5 5 4 4 5 7 7 7 7 7 6
17 18 18 17 17 17 16 16 15 15 14 13 12 11 11 10 10 10 10 9 9 8 8 7 7 7 6 6 6 6 5 5 5 4 4 3 4 5 6 6 6 6 6
17 17 17 17 16 16 15 15 14 14 13 13 12 11 11 11 11 10 10 9 9 8 8 7 7 6 6 6 6 5 5 4 4 4 4 3 3 3 4 4 4 4 5
16 16 16 16 16 15 15 14 14 13 13 12 11 11 11 10 10 9 9 9 8 8 7 7 6 6 6 6 5 5 4 4 4 3 3 3 2 2 1 1 2 3 3
15 15 15 15 15 14 14 14 13 13 12 12 11 11 10 10 9 9 9 8 8 8 7 7 6 6 5 5 5 5 4 4 3 3 2 2 1 1 1 -0 0 1 2
15 15 14 14 14 14 14 13 13 12 12 11 11 11 10 10 9 9 8 8 8 7 7 7 6 6 6 5 5 4 4 4 3 3 2 2 2 1 1 -0 -0 -0 0
14 14 13 13 13 13 13 13 13 12 12 11 11 10 10 10 9 9 8 8 8 8 7 7 6 6 5 5 4 4 4 3 3 3 3 2 2 1 0 -0 -1 -2 -2
14 13 13 13 13 13 12 12 12 12 11 11 10 10 10 9 9 9 8 8 8 7 7 6 6 5 5 5 4 4 4 3 3 3 3 2 2 1 0 -1 -1 -2 -3
13 13 13 12 12 12 12 11 11 11 11 10 10 9 9 9 8 8 8 7 7 7 6 6 5 5 5 4 4 4 3 3 3 3 2 2 1 1 -0 -1 -2 -3 -3
13 13 12 12 12 11 11 11 10 10 10 10 9 9 8 8 8 7 7 7 7 7 6 6 5 5 5 4 4 3 3 3 3 2 2 2 1 1 -0 -1 -2 -3 -4
12 12 12 11 11 10 10 10 9 9 9 9 8 8 8 7 7 7 7 7 6 6 6 5 5 5 4 4 3 3 3 2 2 2 2 1 1 0 -0 -1 -2 -3 -4
12 11 11 10 10 10 9 9 9 8 8 8 7 7 7 7 6 6 6 6 6 5 5 5 4 4 4 3 3 3 2 2 2 1 1 1 0 0 -0 -1 -2 -3 -4
11 10 10 10 9 9 9 8 8 7 7 7 7 6 6 6 6 6 5 5 5 4 4 4 4 3 3 3 3 2 2 1 1 1 0 0 -0 -0 -1 -1 -2 -3 -4
10 9 9 9 8 8 8 7 7 7 6 6 6 6 6 5 5 5 4 4 4 3 3 3 3 2 2 2 2 1 1 1 0 0 -0 -0 -1 -1 -2 -2 -3 -4 -5
9 9 8 8 7 7 7 6 6 6 5 5 5 5 5 5 4 4 3 3 3 2 2 2 1 1 1 1 1 0 -0 -0 -1 -1 -1 -1 -2 -2 -3 -4 -4 -5 -5
8 8 7 7 7 6 6 5 5 5 5 5 4 4 4 4 3 3 2 2 1 1 1 1 0 0 0 0 0 -0 -1 -1 -1 -1 -1 -2 -2 -3 -3 -4 -4 -4 -5
7 7 6 6 6 5 5 5 4 4 4 4 4 3 3 2 2 1 1 1 0 0 -0 -0 -0 -1 -0 -0 -1 -1 -1 -2 -2 -2 -2 -2 -3 -3 -4 -4 -5 -5 -5
6 6 6 5 5 5 4 4 4 3 3 3 3 2 1 1 1 0 0 -0 -0 -1 -1 -1 -1 -1 -1 -1 -1 -2 -2 -2 -2 -2 -2 -3 -3 -3 -4 -5 -5 -6 -6
5 5 5 4 4 4 3 3 3 3 2 2 1 1 0 0 -0 -0 -1 -1 -1 -1 -1 -2 -2 -2 -2 -2 -2 -2 -3 -3 -3 -3 -3 -3 -4 -4 -5 -5 -6 -6 -6
5 4 4 4 3 3 3 2 2 2 1 1 0 0 -0 -1 -1 -1 -1 -2 -2 -2 -2 -2 -2 -2 -2 -2 -3 -3 -3 -4 -4 -4 -4 -4 -4 -5 -5 -5 -6 -6 -6
4 4 3 3 3 2 2 1 1 1 0 -0 -0 -1 -1 -1 -2 -2 -2 -2 -3 -3 -3 -3 -3 -3 -3 -3 -3 -3 -4 -4 -4 -4 -4 -4 -5 -5 -5 -5 -6 -6 -6
3 3 2 2 2 2 1 1 0 0 -1 -1 -1 -2 -2 -2 -2 -3 -3 -3 -3 -3 -4 -4 -4 -3 -3 -3 -3 -4 -4 -4 -4 -4 -5 -5 -5 -5 -5 -5 -6 -6 -6
2 2 2 1 1 1 1 0 -0 -1 -2 -2 -2 -2 -3 -3 -3 -3 -3 -4 -4 -4 -4 -4 -4 -4 -4 -4 -4 -4 -4 -4 -4 -5 -5 -5 -5 -5 -6 -6 -6 -6 -6
2 1 1 1 0 0 -0 -1 -1 -2 -3 -3 -3 -3 -3 -3 -4 -4 -4 -4 -4 -4 -4 -4 -4 -4 -4 -4 -4 -4 -4 -4 -5 -5 -5 -5 -5 -6 -6 -6 -6 -6 -6
1 1 0 -0 -0 -1 -1 -1 -2 -3 -3 -4 -4 -4 -4 -4 -4 -5 -5 -4 -5 -4 -4 -4 -4 -5 -5 -5 -5 -5 -5 -5 -5 -5 -5 -6 -6 -6 -6 -6 -6 -6 -6
Wind_Speed
8 5 2 7 8 10 12 15 16 14 12 9 10 11 13 10 8 14 20 23 24 24 22 16 14 14 11 12 12 9 9 8 4 3 5 6 9 13 12 13 13 16 20
11 9 4 4 7 10 12 13 15 14 14 14 12 8 7 7 8 9 15 21 23 23 22 17 11 11 10 11 11 11 7 7 7 5 3 5 6 8 13 12 12 12 15
9 8 5 1 3 7 10 12 14 14 14 12 7 4 3 2 5 8 9 13 20 22 22 20 17 12 13 14 14 13 12 11 9 8 6 5 8 4 4 8 10 10 10
6 6 5 3 2 5 6 8 9 11 11 10 9 11 11 13 12 10 9 10 17 20 22 21 19 14 13 15 15 14 13 12 11 7 10 8 4 4 5 4 5 8 11
5 5 5 4 3 2 2 4 5 7 8 10 12 12 14 14 9 7 9 11 11 16 20 20 17 15 14 16 15 14 15 15 15 11 7 11 10 8 7 9 5 4 7
5 6 6 6 6 5 3 1 3 5 7 9 11 13 15 14 11 10 11 10 10 11 14 16 16 16 15 17 17 17 17 17 17 15 12 9 7 9 11 16 12 8 6
3 4 6 6 6 6 4 2 2 4 5 8 10 12 15 14 15 14 12 12 10 11 13 15 16 16 16 16 15 17 18 19 17 18 16 15 15 7 8 12 12 9 6
1 1 2 3 3 5 4 3 3 4 4 6 9 10 11 10 11 13 12 13 12 13 12 14 16 17 17 17 17 16 18 17 19 21 20 16 15 13 12 9 9 9 8
3 2 2 2 3 4 4 3 3 4 5 6 7 8 9 10 12 12 11 11 12 11 12 14 16 17 18 18 17 17 19 18 19 19 20 19 15 13 13 11 10 11 13
3 3 3 3 3 3 4 4 3 4 5 5 6 6 7 9 10 9 11 12 13 12 12 13 14 15 16 17 17 17 17 19 19 16 18 19 15 14 13 13 12 13 16
4 3 3 3 3 4 4 4 4 4 5 6 6 6 7 7 8 8 10 11 11 11 12 13 13 14 15 16 16 18 17 19 20 18 19 21 17 15 13 13 13 15 14
3 3 3 4 4 5 5 5 5 5 6 6 6 7 7 7 8 9 10 10 11 11 12 12 13 14 14 14 16 18 18 19 20 20 19 20 17 19 15 15 16 16 15
3 3 4 4 5 6 6 6 6 6 6 6 6 7 8 8 9 10 10 10 10 11 11 11 12 13 13 14 15 17 17 18 19 19 19 20 18 19 16 17 16 15 15
3 3 4 5 6 7 7 7 8 7 7 6 7 8 9 10 10 10 10 11 11 11 12 12 13 13 13 13 14 15 16 17 17 17 18 18 19 20 18 17 17 16 15
4 5 5 6 7 8 8 7 8 7 7 7 8 9 10 10 10 11 11 11 11 12 12 12 13 12 12 12 13 13 15 15 16 16 17 18 22 25 21 17 14 14 14
6 7 8 8 8 8 8 8 8 8 7 8 10 10 11 11 11 11 11 11 12 12 12 13 14 14 12 20 24 19 13 14 15 16 16 17 21 26 31 32 29 23 18
8 8 8 9 9 8 7 8 8 8 8 9 10 11 11 12 12 12 12 12 12 12 13 13 13 14 17 25 26 26 17 13 14 15 14 14 15 21 15 23 31 29 33
8 8 8 8 8 7 7 7 8 9 9 10 11 11 11 13 13 12 13 13 12 12 12 13 13 14 17 25 26 26 18 13 13 14 14 14 14 15 16 14 15 16 17
9 8 8 7 7 8 8 8 10 10 10 11 12 12 12 13 13 14 14 13 12 12 12 12 13 14 16 23 25 25 12 11 12 12 13 14 13 21 26 17 15 15 15
9 8 7 6 7 8 8 9 11 11 12 13 13 13 12 13 14 15 14 13 12 13 13 13 12 14 15 21 24 24 10 11 11 9 11 19 19 21 24 16 14 17 14
9 8 7 7 8 9 9 10 11 13 13 13 13 13 13 13 14 14 13 13 13 13 13 14 13 13 15 19 23 23 11 9 10 9 8 10 21 23 24 22 15 19 15
8 7 7 9 9 9 9 12 14 14 14 13 14 14 14 13 13 14 14 13 13 14 14 13 13 10 11 15 18 22 21 18 11 10 8 10 20 22 23 20 20 24 21
8 7 8 10 10 10 10 14 16 15 15 14 14 14 14 13 12 13 15 14 12 12 12 12 12 12 9 11 20 21 22 22 13 9 14 16 20 20 16 20 23 19 13
9 8 9 12 14 12 11 12 15 15 14 16 15 14 14 14 13 11 11 11 12 12 12 12 13 12 10 9 8 9 11 14 13 10 13 17 18 15 14 14 13 10 9
8 8 10 13 16 15 14 13 13 14 15 15 14 14 13 14 13 12 11 13 12 14 15 13 12 13 14 14 20 15 9 7 10 8 6 6 6 7 7 7 7 7 7
10 11 12 13 16 16 16 14 13 13 14 14 13 12 12 12 12 13 14 18 19 24 25 23 21 16 20 25 25 23 21 19 16 11 6 7 7 7 8 7 7 7 7
Wind_Direction
331 337 191 175 180 188 193 197 200 199 188 188 196 202 213 210 210 213 212 210 210 208 210 218 211 206 214 218 214 214 218 225 192 229 275 270 245 243 241 237 235 234 232
10 14 46 140 182 195 200 200 202 199 198 204 204 203 207 210 211 214 216 214 213 212 214 217 214 210 216 220 214 209 217 218 189 190 219 288 292 245 238 230 230 232 228
18 13 21 86 190 207 207 207 206 203 203 200 188 183 183 240 216 218 222 217 216 217 219 219 218 214 215 224 220 212 214 224 210 196 185 210 246 293 263 235 231 225 221
23 20 15 3 273 237 218 215 209 206 203 192 192 197 210 224 226 223 223 216 216 219 221 222 220 219 220 225 223 217 217 218 225 215 221 224 196 226 291 271 240 229 226
30 23 5 345 337 325 249 220 210 210 202 199 204 209 224 234 237 227 227 226 222 222 223 222 222 224 224 226 224 220 216 219 226 220 209 228 236 230 243 270 270 258 236
30 20 10 9 5 5 7 341 212 224 211 207 212 217 229 236 240 237 235 236 233 229 226 224 225 227 228 228 226 224 222 223 225 225 218 209 212 215 222 243 251 248 240
33 19 19 14 8 5 357 348 270 254 232 218 222 226 233 236 240 243 242 243 243 239 232 227 230 232 232 231 227 226 227 226 225 226 228 227 229 213 209 232 248 247 238
327 345 350 357 351 356 356 340 301 277 259 236 237 237 238 240 247 248 246 246 248 247 238 230 233 234 233 233 229 230 230 230 230 231 230 232 232 223 220 221 228 251 251
244 264 299 318 330 342 341 324 303 290 280 260 254 253 247 243 250 254 252 254 254 254 244 237 237 237 236 234 231 233 232 231 231 233 232 233 234 228 226 222 216 230 255
242 268 290 303 317 323 326 333 311 290 287 279 265 261 258 253 255 260 261 260 260 257 254 248 244 243 240 237 235 237 236 234 234 232 232 233 234 231 227 226 223 224 239
236 266 288 307 329 341 342 336 325 311 300 290 281 278 277 274 270 266 266 266 267 264 260 257 252 248 245 241 239 239 236 236 237 234 233 235 230 231 228 226 225 228 229
260 282 309 340 346 339 331 324 313 303 293 290 288 284 284 286 282 276 273 271 271 269 265 263 259 256 252 245 241 243 240 238 239 237 235 236 231 230 229 227 228 229 227
308 328 338 339 329 318 312 306 299 292 291 293 293 294 293 290 285 282 280 278 275 275 271 266 263 261 257 252 246 245 244 241 239 237 235 235 230 232 229 227 229 229 230
326 340 329 314 305 299 296 297 295 293 295 298 298 296 293 290 288 287 285 283 280 279 276 271 267 264 261 256 252 248 247 245 243 239 236 235 230 231 229 228 228 226 227
337 322 306 295 294 296 296 298 297 300 303 305 302 296 294 292 291 289 287 285 281 279 276 276 273 268 265 261 256 251 250 249 248 245 240 237 236 235 233 232 227 222 226
309 302 298 295 294 293 295 299 299 301 305 303 298 297 297 297 293 291 289 286 283 280 278 276 275 274 272 275 276 271 253 248 247 247 244 241 245 246 245 243 237 225 222
292 292 292 287 287 289 293 298 297 301 302 298 297 298 297 296 293 291 290 287 286 283 281 277 274 274 275 281 284 282 275 254 247 244 243 243 240 243 239 245 246 242 234
292 291 289 289 290 293 299 299 301 303 301 299 297 296 295 294 293 292 290 288 286 284 283 281 277 276 278 284 287 286 280 267 252 242 238 238 237 233 234 231 234 238 240
291 288 286 288 295 301 303 306 307 305 303 300 297 295 294 294 295 294 292 291 291 290 285 283 282 282 284 288 290 289 277 269 259 246 237 237 237 242 243 236 233 236 237
299 297 298 302 307 308 311 310 307 306 302 299 296 295 293 292 294 294 293 292 290 290 290 287 283 281 281 286 292 290 278 272 267 254 240 245 245 246 246 238 231 235 234
292 296 302 303 299 303 309 305 304 301 298 297 296 295 292 291 292 292 291 292 293 292 291 289 286 282 282 288 291 291 284 268 267 262 248 240 251 252 247 242 234 238 233
299 304 304 301 300 301 303 303 303 300 299 298 297 295 294 294 297 294 294 293 293 294 294 294 293 286 282 287 290 292 290 284 270 263 251 243 252 252 250 247 240 239 240
298 299 298 301 301 298 294 298 301 302 302 300 299 298 297 295 293 293 295 297 295 294 295 294 294 294 285 283 291 294 294 291 283 266 261 258 257 254 252 250 246 242 236
298 299 303 307 308 307 297 291 297 300 301 301 302 300 300 300 297 292 292 294 294 294 294 294 294 295 293 286 280 276 282 284 284 279 270 267 264 254 244 245 249 238 228
300 300 300 302 304 306 304 300 299 301 302 301 300 301 299 299 300 296 293 292 284 285 291 292 292 297 298 295 296 294 279 267 264 265 254 247 244 239 232 228 228 226 223
303 303 300 299 303 305 305 305 303 302 303 305 304 303 302 302 300 301 301 294 291 295 295 294 294 293 292 297 300 301 299 292 284 278 260 249 239 234 227 220 216 215 214
Height
1486 1484 1485 1486 1488 1491 1493 1495 1497 1499 1501 1502 1504 1505 1505 1506 1508 1509 1510 1512 1514 1515 1516 1517 1518 1520 1520 1520 1521 1522 1521 1521 1522 1521 1517 1515 1515 1513 1513 1514 1514 1514 1514
1488 1486 1486 1486 1488 1489 1491 1492 1493 1495 1497 1498 1500 1501 1502 1502 1503 1505 1505 1506 1507 1508 1509 1510 1510 1511 1512 1512 1513 1513 1513 1513 1514 1514 1512 1508 1504 1501 1503 1503 1503 1504 1505
1491 1489 1488 1488 1488 1489 1489 1490 1491 1492 1494 1495 1497 1497 1498 1497 1497 1497 1498 1499 1500 1501 1502 1502 1502 1503 1503 1503 1504 1505 1505 1504 1505 1505 1506 1503 1496 1495 1492 1492 1493 1495 1496
1493 1492 1490 1490 1489 1488 1488 1488 1489 1490 1491 1492 1492 1492 1492 1490 1490 1492 1493 1493 1494 1493 1493 1494 1494 1493 1493 1493 1494 1495 1494 1495 1494 1494 1493 1494 1493 1492 1486 1484 1485 1486 1486
1495 1494 1492 1491 1490 1489 1488 1487 1487 1487 1488 1489 1489 1488 1487 1486 1487 1487 1486 1486 1486 1485 1485 1485 1485 1484 1483 1483 1483 1484 1483 1483 1483 1483 1483 1483 1482 1482 1481 1476 1474 1476 1476
1497 1495 1494 1492 1490 1489 1488 1487 1486 1486 1486 1486 1485 1485 1483 1483 1482 1480 1479 1478 1478 1477 1476 1476 1475 1474 1473 1472 1472 1473 1472 1472 1471 1472 1471 1471 1470 1469 1469 1468 1465 1465 1467
1498 1496 1495 1493 1491 1490 1488 1487 1486 1485 1484 1484 1483 1481 1480 1479 1477 1475 1473 1472 1470 1468 1467 1467 1465 1464 1463 1462 1462 1461 1460 1460 1459 1458 1458 1458 1457 1459 1460 1460 1457 1456 1456
1498 1497 1495 1494 1492 1490 1489 1487 1486 1485 1483 1482 1480 1479 1477 1475 1472 1470 1468 1465 1463 1460 1459 1458 1455 1454 1453 1452 1451 1449 1448 1448 1446 1446 1446 1446 1445 1446 1447 1448 1450 1447 1445
1498 1497 1496 1494 1492 1491 1489 1487 1486 1484 1482 1480 1478 1476 1473 1471 1468 1465 1462 1459 1456 1453 1451 1449 1446 1444 1443 1442 1440 1438 1436 1436 1434 1433 1434 1433 1433 1435 1435 1436 1438 1441 1436
1497 1497 1495 1494 1492 1491 1489 1487 1485 1482 1480 1477 1475 1472 1469 1466 1463 1459 1456 1452 1449 1446 1443 1440 1437 1435 1433 1431 1429 1426 1425 1424 1421 1421 1421 1420 1421 1422 1424 1424 1425 1426 1426
1497 1496 1495 1493 1492 1490 1488 1485 1483 1480 1477 1474 1471 1468 1464 1461 1457 1454 1450 1446 1442 1438 1435 1431 1428 1425 1422 1420 1418 1415 1414 1412 1410 1410 1409 1407 1409 1410 1411 1412 1413 1414 1414
1496 1495 1493 1492 1490 1488 1485 1482 1479 1476 1473 1469 1466 1462 1459 1455 1451 1447 1443 1438 1434 1430 1426 1422 1418 1414 1412 1409 1407 1403 1402 1400 1397 1397 1397 1396 1398 1397 1399 1400 1400 1401 1402
1494 1493 1492 1490 1488 1485 1482 1479 1475 1472 1468 1464 1460 1456 1452 1448 1443 1439 1434 1430 1425 1420 1416 1412 1408 1404 1401 1398 1395 1392 1389 1387 1385 1385 1384 1384 1385 1384 1386 1387 1387 1388 1390
1492 1491 1489 1487 1485 1481 1478 1474 1470 1466 1462 1458 1454 1450 1445 1441 1435 1431 1426 1421 1416 1411 1407 1402 1398 1394 1390 1387 1383 1380 1377 1374 1373 1372 1371 1371 1372 1371 1373 1374 1374 1376 1378
1490 1489 1486 1483 1480 1476 1472 1468 1465 1461 1456 1452 1447 1443 1438 1433 1427 1422 1417 1412 1407 1403 1398 1393 1388 1384 1380 1376 1372 1368 1365 1362 1360 1359 1358 1358 1359 1359 1360 1361 1361 1364 1365
1488 1485 1482 1479 1475 1471 1466 1462 1458 1455 1450 1445 1440 1435 1430 1424 1419 1414 1408 1403 1398 1393 1388 1383 1378 1373 1370 1366 1362 1358 1353 1350 1348 1346 1346 1346 1346 1347 1348 1349 1350 1351 1352
1485 1481 1477 1474 1469 1465 1461 1457 1452 1448 1443 1438 1433 1428 1422 1416 1410 1405 1399 1394 1388 1383 1378 1373 1368 1363 1359 1356 1352 1348 1345 1340 1337 1335 1334 1334 1334 1335 1335 1337 1340 1341 1342
1480 1476 1472 1468 1464 1460 1456 1451 1446 1442 1436 1431 1425 1419 1413 1407 1402 1396 1390 1385 1379 1373 1368 1363 1358 1353 1349 1346 1341 1338 1334 1329 1326 1325 1324 1323 1322 1324 1324 1324 1325 1327 1330
1475 1472 1468 1463 1459 1455 1450 1445 1440 1435 1429 1423 1417 1412 1406 1399 1393 1387 1381 1376 1370 1363 1358 1353 1348 1343 1338 1336 1331 1327 1322 1318 1316 1314 1313 1312 1311 1312 1314 1314 1313 1314 1316
1471 1467 1463 1459 1454 1450 1444 1439 1433 1427 1421 1415 1410 1404 1398 1392 1385 1379 1373 1367 1361 1354 1349 1343 1339 1334 1329 1326 1322 1318 1313 1308 1306 1304 1303 1303 1302 1302 1303 1304 1304 1304 1305
1466 1462 1458 1453 1449 1444 1438 1432 1426 1420 1414 1408 1402 1396 1390 1384 1377 1370 1364 1358 1351 1345 1339 1334 1329 1325 1321 1316 1313 1309 1305 1300 1297 1294 1293 1292 1293 1293 1293 1294 1294 1295 1298
1460 1456 1452 1448 1443 1438 1432 1425 1419 1413 1406 1400 1393 1387 1381 1375 1369 1362 1355 1349 1343 1336 1330 1325 1319 1316 1312 1308 1304 1300 1297 1294 1290 1286 1285 1284 1284 1284 1285 1285 1286 1288 1291
1455 1451 1446 1441 1436 1432 1426 1419 1412 1405 1398 1391 1384 1378 1371 1366 1360 1353 1346 1340 1334 1328 1322 1317 1311 1307 1303 1300 1296 1292 1289 1285 1282 1279 1277 1276 1276 1276 1276 1277 1279 1281 1283
1450 1445 1440 1434 1428 1423 1418 1412 1405 1398 1390 1383 1375 1369 1362 1356 1350 1345 1339 1332 1326 1321 1315 1310 1305 1300 1295 1291 1288 1284 1280 1277 1274 1272 1270 1269 1268 1268 1268 1269 1271 1273 1275
1444 1440 1434 1428 1421 1415 1409 1404 1398 1390 1382 1374 1367 1361 1354 1348 1341 1336 1331 1325 1319 1316 1310 1304 1299 1294 1288 1284 1282 1278 1273 1270 1267 1264 1262 1261 1261 1261 1261 1262 1264 1266 1268
1438 1433 1427 1421 1414 1408 1401 1395 1389 1382 1374 1366 1359 1353 1346 1340 1334 1327 1320 1316 1312 1307 1303 1298 1293 1287 1283 1278 1274 1270 1267 1263 1261 1259 1255 1254 1254 1254 1255 1256 1258 1259 1261